New Delhi, India

10:53 AM IST on November 18, 2017 (GMT +0530)
Indira Gandhi International

Weather History for VIDP - October, 2011

Change the Weather History Date:

Friday, October 14, 2011

  Actual Average Record
Temperature  
Mean Temperature 83 °F -  
Max Temperature 93 °F 84 °F 98 °F (2017)
Min Temperature 73 °F 62 °F 64 °F (2003)
Cooling Degree Days 18    
Growing Degree Days 33 (Base 50)    
Moisture  
Dew Point 58 °F    
Average Humidity 45    
Maximum Humidity 65    
Minimum Humidity 26    
Precipitation  
Precipitation 0.00 in - - ()
Sea Level Pressure  
Sea Level Pressure 29.82 in    
Wind  
Wind Speed 4 mph ()    
Max Wind Speed 16 mph    
Max Gust Speed -    
Visibility 1.9 miles    
Events      
Averages and records for this station are not official NWS values.
T = Trace of Precipitation, MM = Missing Value Source: Averaged Metar Reports

Daily Weather History Graph

Daily Weather History Graph

Search for Another Location

Airport or City:

Trip Planner

Search our weather history database for the weather conditions in past years. The results will help you decide how hot, cold, wet, or windy it might be!

Date:

Astronomy

Oct. 14, 2011 Rise Set
Actual Time 6:21 AM IST 5:53 PM IST
Civil Twilight 5:57 AM IST 6:17 PM IST
Nautical Twilight 5:30 AM IST 6:44 PM IST
Astronomical Twilight 5:02 AM IST 7:12 PM IST
Moon 7:05 PM IST (10/14) 8:08 AM IST (10/14)
Length of Visible Light 12h 19m
Length of Day
11h 32m
Waning Gibbous, 96% of the Moon is Illuminated
Oct 14
Waning Gibbous
Oct 20
Last Quarter
Oct 27
New
Nov 2
First Quarter
Nov 11
Full

Hourly Weather History & Observations

Time (IST) Temp. Heat Index Dew Point Humidity Pressure Visibility Wind Dir Wind Speed Gust Speed Precip Events Conditions
12:00 AM 77.0 °F - 62.6 °F 61% 29.83 in 1.4 mi Calm Calm - N/A   Haze
12:30 AM 77.0 °F - 62.6 °F 61% 29.83 in 1.4 mi Calm Calm - N/A   Haze
1:00 AM 77.0 °F - 62.6 °F 61% 29.83 in 1.4 mi Calm Calm - N/A   Haze
1:30 AM 75.2 °F - 62.6 °F 65% 29.83 in 1.4 mi Calm Calm - N/A   Haze
2:00 AM 75.2 °F - 62.6 °F 65% 29.83 in 1.4 mi Calm Calm - N/A   Haze
2:30 AM 75.2 °F - 62.6 °F 65% 29.83 in 1.4 mi Calm Calm - N/A   Haze
3:00 AM 75.2 °F - 62.6 °F 65% 29.80 in 1.4 mi WSW 4.6 mph - N/A   Haze
4:30 AM 75.2 °F - 60.8 °F 61% 29.80 in 1.4 mi Calm Calm - N/A   Haze
5:00 AM 75.2 °F - 60.8 °F 61% 29.80 in 1.6 mi WSW 4.6 mph - N/A   Haze
5:30 AM 73.4 °F - 60.8 °F 65% 29.80 in 1.6 mi Calm Calm - N/A   Haze
6:00 AM 75.2 °F - 60.8 °F 61% 29.83 in 1.6 mi Calm Calm - N/A   Haze
6:30 AM 73.4 °F - 60.8 °F 65% 29.83 in 1.6 mi Calm Calm - N/A   Haze
7:00 AM 75.2 °F - 60.8 °F 61% 29.83 in 1.6 mi Calm Calm - N/A   Haze
7:30 AM 75.2 °F - 60.8 °F 61% 29.83 in 1.6 mi Calm Calm - N/A   Haze
8:00 AM 77.0 °F - 60.8 °F 57% 29.83 in 1.6 mi Calm Calm - N/A   Haze
8:30 AM 78.8 °F - 60.8 °F 54% 29.86 in 1.4 mi West 3.5 mph - N/A   Haze
9:00 AM 80.6 °F 81.5 °F 60.8 °F 51% 29.86 in 1.4 mi WSW 4.6 mph - N/A   Haze
9:30 AM 82.4 °F 82.5 °F 59.0 °F 45% 29.86 in 1.5 mi West 5.8 mph - N/A   Haze
10:00 AM 84.2 °F 83.8 °F 59.0 °F 42% 29.86 in 1.6 mi West 8.1 mph - N/A   Haze
10:30 AM 86.0 °F 85.4 °F 59.0 °F 40% 29.86 in 1.6 mi West 9.2 mph - N/A   Haze
11:00 AM 87.8 °F 87.1 °F 59.0 °F 38% 29.86 in 1.7 mi WNW 6.9 mph - N/A   Haze
12:00 PM 91.4 °F 89.9 °F 57.2 °F 31% 29.83 in - WNW 9.2 mph - N/A   Haze
12:30 PM 91.4 °F 89.9 °F 57.2 °F 31% 29.83 in 2.2 mi WNW 9.2 mph - N/A   Haze
1:00 PM 93.2 °F 91.3 °F 55.4 °F 28% 29.83 in 2.2 mi WNW 9.2 mph - N/A   Haze
1:30 PM 93.2 °F 91.3 °F 55.4 °F 28% 29.80 in 2.2 mi WNW 10.4 mph - N/A   Haze
2:00 PM 91.4 °F 89.9 °F 57.2 °F 31% 29.80 in 2.2 mi WSW 12.7 mph - N/A   Haze
2:30 PM 91.4 °F 89.9 °F 57.2 °F 31% 29.80 in 2.5 mi West 12.7 mph - N/A   Haze
3:00 PM 93.2 °F 91.3 °F 55.4 °F 28% 29.80 in 2.5 mi WNW 16.1 mph - N/A   Haze
3:30 PM 93.2 °F 90.8 °F 53.6 °F 26% 29.77 in 2.5 mi WNW 15.0 mph - N/A   Haze
4:00 PM 91.4 °F 89.4 °F 55.4 °F 29% 29.77 in 2.5 mi West 15.0 mph - N/A   Haze
4:30 PM 91.4 °F 89.1 °F 53.6 °F 28% 29.77 in 2.5 mi WNW 13.8 mph - N/A   Haze
5:00 PM 89.6 °F 87.7 °F 55.4 °F 31% 29.77 in 2.5 mi West 12.7 mph - N/A   Haze
5:30 PM 87.8 °F 86.1 °F 55.4 °F 33% 29.80 in 2.2 mi West 12.7 mph - N/A   Haze
6:00 PM 87.8 °F 86.1 °F 55.4 °F 33% 29.80 in 2.2 mi West 10.4 mph - N/A   Haze
6:30 PM 84.2 °F 83.0 °F 55.4 °F 37% 29.80 in 2.2 mi WNW 6.9 mph - N/A   Haze
7:00 PM 84.2 °F 83.0 °F 55.4 °F 37% 29.80 in 2.2 mi SSW 6.9 mph - N/A   Haze
7:30 PM 84.2 °F 83.0 °F 55.4 °F 37% 29.80 in - WNW 8.1 mph - N/A   Haze
8:00 PM 84.2 °F 83.5 °F 57.2 °F 40% 29.80 in - NW 8.1 mph - N/A   Haze
8:30 PM 84.2 °F 83.0 °F 55.4 °F 37% 29.80 in - NW 9.2 mph - N/A   Haze
9:00 PM 84.2 °F 83.5 °F 57.2 °F 40% 29.80 in - WNW 9.2 mph - N/A   Haze
9:30 PM 84.2 °F 83.5 °F 57.2 °F 40% 29.80 in - NW 8.1 mph - N/A   Haze
10:00 PM 84.2 °F 83.5 °F 57.2 °F 40% 29.80 in 2.2 mi NNW 8.1 mph - N/A   Haze
10:30 PM 82.4 °F 82.0 °F 57.2 °F 42% 29.80 in 2.2 mi NW 9.2 mph - N/A   Haze
11:30 PM 82.4 °F 82.0 °F 57.2 °F 42% 29.80 in 2.2 mi NW 8.1 mph - N/A   Haze